• In Uzbekistan
  • List of Countries
  • For 7 days
  • Water Temperature
  • Satellite Maps
  • Weather Map
  • Weather Widgets
  • user-avatar
    Login

    Hourly Weather San Juan

    Today, 29 April, Saturday

    Time Temperature Precipitation Wind Pressure Humidity
    00:00 +16°C° 0 mm 1 mps 707 mmHg 34%
    01:00 +16°C° 0 mm 1 mps 707 mmHg 33%
    02:00 +16°C° 0 mm 1 mps 707 mmHg 33%
    03:00 +16°C° 0 mm 1 mps 706 mmHg 34%
    04:00 +15°C° 0 mm 1 mps 706 mmHg 35%
    05:00 +16°C° 0 mm 1 mps 707 mmHg 35%
    06:00 +16°C° 0 mm 1 mps 707 mmHg 35%
    07:00 +18°C° 0 mm 1 mps 707 mmHg 36%
    08:00 +20°C° 0 mm 1 mps 708 mmHg 31%
    09:00 +23°C° 0 mm 1 mps 708 mmHg 25%
    10:00 +25°C° 0 mm 1 mps 708 mmHg 20%
    11:00 +26°C° 0 mm 1 mps 708 mmHg 19%
    12:00 +27°C° 0 mm 1 mps 708 mmHg 18%
    13:00 +28°C° 0 mm 1 mps 707 mmHg 16%
    14:00 +28°C° 0 mm 2 mps 707 mmHg 17%
    15:00 +27°C° 0 mm 2 mps 707 mmHg 18%
    16:00 +27°C° 0 mm 2 mps 707 mmHg 19%
    17:00 +25°C° 0 mm 2 mps 708 mmHg 24%
    18:00 +23°C° 0 mm 2 mps 708 mmHg 30%
    19:00 +21°C° 0 mm 1 mps 708 mmHg 35%
    20:00 +20°C° 0 mm 1 mps 708 mmHg 38%
    21:00 +19°C° 0 mm 1 mps 708 mmHg 42%
    22:00 +16°C° 0 mm 0 mps 708 mmHg 45%
    23:00 +18°C° 0 mm 1 mps 708 mmHg 44%

    Tomorrow, 30 April, Sunday

    Time Temperature Precipitation Wind Pressure Humidity
    00:00 +18°C° 0 mm 1 mps 708 mmHg 43%
    01:00 +18°C° 0 mm 1 mps 708 mmHg 41%
    02:00 +16°C° 0 mm 1 mps 707 mmHg 41%
    03:00 +16°C° 0 mm 1 mps 707 mmHg 41%
    04:00 +16°C° 0 mm 1 mps 707 mmHg 41%
    05:00 +16°C° 0 mm 1 mps 707 mmHg 40%
    06:00 +18°C° 0 mm 1 mps 707 mmHg 39%
    07:00 +18°C° 0 mm 1 mps 707 mmHg 37%
    08:00 +20°C° 0 mm 2 mps 708 mmHg 32%
    09:00 +23°C° 0 mm 2 mps 708 mmHg 26%
    10:00 +26°C° 0 mm 2 mps 709 mmHg 21%
    11:00 +27°C° 0 mm 2 mps 708 mmHg 19%
    12:00 +28°C° 0 mm 2 mps 707 mmHg 17%
    13:00 +29°C° 0 mm 2 mps 707 mmHg 16%
    14:00 +28°C° 0 mm 2 mps 707 mmHg 17%
    15:00 +28°C° 0 mm 2 mps 706 mmHg 17%
    16:00 +27°C° 0 mm 1 mps 706 mmHg 18%
    17:00 +25°C° 0 mm 1 mps 706 mmHg 23%
    18:00 +23°C° 0 mm 1 mps 706 mmHg 28%
    19:00 +20°C° 0 mm 1 mps 706 mmHg 33%
    20:00 +20°C° 0 mm 1 mps 707 mmHg 32%
    21:00 +20°C° 0 mm 1 mps 707 mmHg 31%
    22:00 +19°C° 0 mm 2 mps 707 mmHg 30%
    23:00 +18°C° 0 mm 2 mps 707 mmHg 31%

    Day after tomorrow, 1 May, Monday

    Time Temperature Precipitation Wind Pressure Humidity
    00:00 +18°C° 0 mm 2 mps 707 mmHg 32%
    01:00 +18°C° 0 mm 2 mps 706 mmHg 32%
    02:00 +17°C° 0 mm 2 mps 706 mmHg 32%
    03:00 +17°C° 0 mm 2 mps 706 mmHg 32%
    04:00 +17°C° 0 mm 2 mps 705 mmHg 32%
    05:00 +17°C° 0 mm 2 mps 706 mmHg 31%
    06:00 +17°C° 0 mm 2 mps 706 mmHg 29%
    07:00 +18°C° 0 mm 2 mps 706 mmHg 28%
    08:00 +21°C° 0 mm 2 mps 706 mmHg 23%
    09:00 +24°C° 0 mm 2 mps 706 mmHg 19%
    10:00 +27°C° 0 mm 3 mps 707 mmHg 14%
    11:00 +28°C° 0 mm 3 mps 706 mmHg 12%
    12:00 +29°C° 0 mm 3 mps 705 mmHg 10%
    13:00 +30°C° 0 mm 3 mps 705 mmHg 9%
    14:00 +30°C° 0 mm 2 mps 704 mmHg 9%
    15:00 +29°C° 0 mm 2 mps 704 mmHg 10%
    16:00 +28°C° 0 mm 1 mps 704 mmHg 11%
    17:00 +26°C° 0 mm 1 mps 704 mmHg 13%
    18:00 +23°C° 0 mm 1 mps 704 mmHg 15%
    19:00 +21°C° 0 mm 1 mps 704 mmHg 18%
    20:00 +21°C° 0 mm 1 mps 704 mmHg 18%
    21:00 +19°C° 0 mm 2 mps 704 mmHg 19%
    22:00 +19°C° 0 mm 2 mps 704 mmHg 20%
    23:00 +19°C° 0 mm 2 mps 704 mmHg 22%

    2 May, Tuesday

    Time Temperature Precipitation Wind Pressure Humidity
    00:00 +19°C° 0 mm 2 mps 704 mmHg 24%
    01:00 +18°C° 0 mm 3 mps 703 mmHg 27%
    02:00 +18°C° 0 mm 3 mps 703 mmHg 28%
    03:00 +17°C° 0 mm 2 mps 703 mmHg 30%
    04:00 +17°C° 0 mm 2 mps 703 mmHg 32%
    05:00 +17°C° 0 mm 2 mps 703 mmHg 31%
    06:00 +18°C° 0 mm 2 mps 703 mmHg 31%
    07:00 +18°C° 0 mm 2 mps 704 mmHg 30%
    08:00 +21°C° 0 mm 2 mps 704 mmHg 26%
    09:00 +24°C° 0 mm 1 mps 704 mmHg 21%
    10:00 +27°C° 0 mm 1 mps 705 mmHg 17%
    11:00 +28°C° 0 mm 2 mps 704 mmHg 16%
    12:00 +29°C° 0 mm 2 mps 704 mmHg 15%
    13:00 +29°C° 0 mm 2 mps 703 mmHg 14%
    14:00 +29°C° 0 mm 3 mps 704 mmHg 17%
    15:00 +28°C° 0 mm 3 mps 704 mmHg 20%
    16:00 +27°C° 0 mm 4 mps 704 mmHg 23%
    17:00 +25°C° 0 mm 4 mps 705 mmHg 28%
    18:00 +22°C° 0 mm 3 mps 706 mmHg 33%
    19:00 +20°C° 0 mm 3 mps 706 mmHg 39%
    20:00 +20°C° 0 mm 3 mps 707 mmHg 39%
    21:00 +19°C° 0 mm 3 mps 707 mmHg 40%
    22:00 +19°C° 0 mm 2 mps 708 mmHg 41%
    23:00 +18°C° 0.1 mm 2 mps 708 mmHg 44%

    3 May, Wednesday

    Time Temperature Precipitation Wind Pressure Humidity
    00:00 +18°C° 0.1 mm 2 mps 708 mmHg 46%
    01:00 +17°C° 0.1 mm 2 mps 708 mmHg 49%
    02:00 +17°C° 0 mm 2 mps 708 mmHg 52%
    03:00 +16°C° 0 mm 1 mps 708 mmHg 56%
    04:00 +15°C° 0 mm 1 mps 708 mmHg 59%
    05:00 +16°C° 0 mm 1 mps 708 mmHg 59%
    06:00 +16°C° 0 mm 1 mps 708 mmHg 59%
    07:00 +16°C° 0 mm 1 mps 709 mmHg 58%
    08:00 +19°C° 0 mm 1 mps 709 mmHg 54%
    09:00 +21°C° 0 mm 1 mps 709 mmHg 50%
    10:00 +23°C° 0 mm 1 mps 709 mmHg 46%
    11:00 +24°C° 0 mm 1 mps 708 mmHg 42%
    12:00 +25°C° 0 mm 1 mps 708 mmHg 39%
    13:00 +25°C° 0 mm 1 mps 707 mmHg 35%
    14:00 +25°C° 0 mm 1 mps 707 mmHg 35%
    15:00 +25°C° 0 mm 1 mps 706 mmHg 34%
    16:00 +25°C° 0 mm 1 mps 706 mmHg 34%
    17:00 +23°C° 0 mm 1 mps 706 mmHg 38%
    18:00 +21°C° 0 mm 1 mps 706 mmHg 43%
    19:00 +20°C° 0 mm 1 mps 706 mmHg 48%
    20:00 +19°C° 0 mm 1 mps 706 mmHg 48%
    21:00 +19°C° 0 mm 1 mps 706 mmHg 48%
    22:00 +18°C° 0 mm 1 mps 706 mmHg 48%
    23:00 +18°C° 0 mm 1 mps 705 mmHg 49%

    4 May, Thursday

    Time Temperature Precipitation Wind Pressure Humidity
    00:00 +18°C° 0 mm 1 mps 705 mmHg 50%
    01:00 +18°C° 0 mm 1 mps 705 mmHg 51%
    02:00 +18°C° 0 mm 1 mps 705 mmHg 51%
    03:00 +16°C° 0 mm 2 mps 704 mmHg 52%
    04:00 +16°C° 0 mm 2 mps 704 mmHg 53%
    05:00 +17°C° 0 mm 2 mps 704 mmHg 52%
    06:00 +17°C° 0 mm 2 mps 705 mmHg 50%
    07:00 +17°C° 0 mm 2 mps 705 mmHg 49%
    08:00 +20°C° 0 mm 2 mps 705 mmHg 42%
    09:00 +24°C° 0 mm 3 mps 705 mmHg 35%
    10:00 +26°C° 0 mm 3 mps 705 mmHg 28%
    11:00 +27°C° 0 mm 3 mps 705 mmHg 25%
    12:00 +28°C° 0 mm 3 mps 704 mmHg 22%
    13:00 +29°C° 0 mm 3 mps 703 mmHg 20%
    14:00 +29°C° 0 mm 2 mps 703 mmHg 20%
    15:00 +28°C° 0 mm 2 mps 703 mmHg 21%
    16:00 +28°C° 0 mm 1 mps 703 mmHg 22%
    17:00 +25°C° 0 mm 1 mps 703 mmHg 26%
    18:00 +23°C° 0 mm 1 mps 703 mmHg 30%
    19:00 +21°C° 0 mm 1 mps 703 mmHg 34%
    20:00 +21°C° 0 mm 1 mps 703 mmHg 35%
    21:00 +21°C° 0 mm 1 mps 703 mmHg 36%
    22:00 +19°C° 0 mm 2 mps 703 mmHg 37%
    23:00 +19°C° 0 mm 2 mps 703 mmHg 39%
    Show more